Hourly Weather Roundup
Issued by NWS Central Illinois

Home | Current Version | Previous Version | Graphics & Text | Print | Product List | Glossary On
Versions: 1 2 3 4 5 6 7 8 9 10 11 12 13 14 15 16 17 18 19 20 21 22 23 24 25 26 27 28 29 30 31 32 33 34 35 36 37 38 39 40 41 42 43 44 45 46 47 48 49 50
000
NZUS43 KILX 290110
HWRILX

AREA WEATHER ROUNDUP
NATIONAL WEATHER SERVICE, LINCOLN IL
800 PM CDT FRI AUG 28 2015


CITY           SKY/WX    TMP DP  RH WIND       PRES   REMARKS
BLOOMINGTON    MOCLDY    70  62  75 S7        30.06R
CHAMPAIGN      MOCLDY    68  61  78 SE5       30.06R
DANVILLE       MOCLDY    67  62  84 SE6       30.04S
DECATUR        CLOUDY    71  58  63 SE6       30.04R
EFFINGHAM      MOCLDY    69  58  68 CALM      30.06S
FLORA          PTCLDY    68  61  76 SE3       30.04F
GALESBURG      CLOUDY    68  62  80 SE6       29.98S
JACKSONVILLE   MOCLDY    73  63  72 SE6       29.99F
LACON          CLOUDY    70  62  75 SE7       30.01S
LAWRENCEVILLE  PTCLDY    69  61  75 E6        30.06S
LITCHFIELD     CLOUDY    69  59  70 SE7       30.02S
$$


CITY           SKY/WX    TMP DP  RH WIND       PRES   REMARKS
LINCOLN        MOCLDY    71  59  66 SE5       30.02S
MACOMB         CLOUDY    70  62  76 SE6       29.99S
MATTOON        CLOUDY    70  57  63 SE5       30.04S
MT CARMEL AP   CLEAR     68  61  77 E3        30.05S
OLNEY-NOBLE AP CLEAR     68  61  77 CALM      30.05S
PARIS          MOCLDY    67  61  79 E3        30.07S
PEORIA         CLOUDY    74  60  61 S7        30.01S
PONTIAC        CLOUDY    69  65  88 SE5       30.05R
RANTOUL        CLOUDY    71  62  73 SE6       30.06R
ROBINSON       PTCLDY    66  61  82 SE3       30.06S
SPRINGFIELD    MOCLDY    73  60  63 S6        30.02R
TAYLORVILLE    CLOUDY    70  61  73 SE6       30.03R
$$

...REGIONAL REPORTS...


CITY           SKY/WX    TMP DP  RH WIND       PRES   REMARKS
CHICAGO O`HARE CLOUDY    71  60  68 E6        30.06S
KANKAKEE       CLOUDY    69  64  83 CALM      30.07S
MOLINE         LGT RAIN  70  62  76 E13       29.96F
MOUNT STERLING CLOUDY    70  62  75 SE7       29.96F
MOUNT VERNON   PTCLDY    68  59  73 CALM      30.05S
PITTSFIELD     CLOUDY    73  62  68 SE9       29.97F
QUINCY         CLOUDY    73  62  68 S9        29.95F
ROCKFORD       CLOUDY    68  60  75 E9        30.06S
$$


CITY           SKY/WX    TMP DP  RH WIND       PRES   REMARKS
BURLINGTON     CLOUDY    71  63  75 S9        29.95R
CEDAR RAPIDS   TSTM      65  65 100 E10       29.95R
DES MOINES     CLOUDY    73  67  81 S6        29.86R
KIRKSVILLE     MOCLDY    69  65  86 S9        29.93F
OTTUMWA        CLOUDY    71  64  78 S14G22    29.88F
ST LOUIS       CLOUDY    77  59  53 SE14      30.00F
$$


CITY           SKY/WX    TMP DP  RH WIND       PRES   REMARKS
TERRE HAUTE    PTCLDY    69  59  70 E5        30.06F
EVANSVILLE     PTCLDY    74  64  71 CALM      30.06R
INDIANAPOLIS   MOCLDY    71  55  56 E7        30.07S
LAFAYETTE      CLOUDY    70  58  65 S3        30.07S
MADISON        LGT RAIN  64  62  93 SE6       30.07F
MILWAUKEE      LGT RAIN  66  63  90 S5        30.09S FOG
$$




USA.gov is the U.S. government's official web portal to all federal, state and local government web resources and services.